Time,TemperatureF,DewpointF,PressureIn,WindDirection,WindDirectionDegrees,WindSpeedMPH,WindSpeedGustMPH,Humidity,HourlyPrecipIn,Conditions,Clouds,dailyrainin,SoftwareType,DateUTC
2015-08-30 00:13:00,73.0,70.0,30.03,SE,146,0.0,1.0,90,-99.99,,,-99.99,,2015-08-30 05:13:00,
2015-08-30 00:24:00,73.0,70.0,30.03,ESE,111,0.0,1.0,91,-99.99,,,-99.99,,2015-08-30 05:24:00,
2015-08-30 00:33:00,72.0,69.0,30.02,NW,312,0.0,1.0,91,-99.99,,,-99.99,,2015-08-30 05:33:00,
2015-08-30 00:44:00,72.0,69.0,30.02,NW,312,0.0,1.0,91,-99.99,,,-99.99,,2015-08-30 05:44:00,
2015-08-30 00:54:00,72.0,70.0,30.02,NW,312,0.0,0.0,92,-99.99,,,-99.99,,2015-08-30 05:54:00,
2015-08-30 01:03:00,71.0,69.0,30.02,NW,312,0.0,1.0,92,-99.99,,,-99.99,,2015-08-30 06:03:00,
2015-08-30 01:13:00,71.0,69.0,30.02,NW,312,0.0,1.0,92,-99.99,,,-99.99,,2015-08-30 06:13:00,
2015-08-30 01:36:00,71.0,69.0,30.03,WNW,297,0.0,1.0,93,-99.99,,,-99.99,,2015-08-30 06:36:00,
2015-08-30 01:44:00,71.0,69.0,30.03,WNW,297,0.0,1.0,93,-99.99,,,-99.99,,2015-08-30 06:44:00,
2015-08-30 01:54:00,70.0,68.0,30.02,WNW,297,0.0,1.0,94,-99.99,,,-99.99,,2015-08-30 06:54:00,
2015-08-30 02:03:00,70.0,68.0,30.02,WNW,297,0.0,0.0,95,-99.99,,,-99.99,,2015-08-30 07:03:00,
2015-08-30 02:13:00,70.0,68.0,30.02,WNW,297,0.0,0.0,95,-99.99,,,-99.99,,2015-08-30 07:13:00,
2015-08-30 02:23:00,69.0,68.0,30.02,WNW,297,0.0,0.0,95,-99.99,,,-99.99,,2015-08-30 07:23:00,
2015-08-30 02:33:00,69.0,68.0,30.01,WNW,301,0.0,1.0,96,-99.99,,,-99.99,,2015-08-30 07:33:00,
2015-08-30 02:54:00,69.0,68.0,30.01,WNW,301,0.0,0.0,96,-99.99,,,-99.99,,2015-08-30 07:54:00,
2015-08-30 03:03:00,69.0,68.0,30.01,WNW,301,0.0,0.0,96,-99.99,,,-99.99,,2015-08-30 08:03:00,
2015-08-30 03:13:00,69.0,68.0,30.01,WNW,301,0.0,0.0,96,-99.99,,,-99.99,,2015-08-30 08:13:00,
2015-08-30 03:23:00,69.0,68.0,30.00,WNW,301,0.0,1.0,96,-99.99,,,-99.99,,2015-08-30 08:23:00,
2015-08-30 03:33:00,70.0,69.0,30.01,NW,318,0.0,3.0,97,-99.99,,,-99.99,,2015-08-30 08:33:00,
2015-08-30 03:43:00,70.0,69.0,30.01,NW,318,0.0,3.0,97,-99.99,,,-99.99,,2015-08-30 08:43:00,
2015-08-30 03:53:00,69.0,68.0,30.01,NW,318,0.0,0.0,96,-99.99,,,-99.99,,2015-08-30 08:53:00,
2015-08-30 04:03:00,70.0,69.0,30.01,NW,326,0.0,3.0,97,-99.99,,,-99.99,,2015-08-30 09:03:00,
2015-08-30 04:13:00,70.0,69.0,30.01,NW,326,0.0,3.0,97,-99.99,,,-99.99,,2015-08-30 09:13:00,
2015-08-30 04:23:00,70.0,69.0,30.01,North,349,2.0,4.0,96,-99.99,,,-99.99,,2015-08-30 09:23:00,
2015-08-30 04:33:00,70.0,69.0,30.00,WNW,299,1.0,4.0,96,-99.99,,,-99.99,,2015-08-30 09:33:00,
2015-08-30 04:43:00,70.0,69.0,30.00,WNW,299,1.0,4.0,96,-99.99,,,-99.99,,2015-08-30 09:43:00,
2015-08-30 04:54:00,70.0,68.0,30.00,NNE,13,0.0,3.0,95,-99.99,,,-99.99,,2015-08-30 09:54:00,
2015-08-30 05:03:00,69.0,68.0,30.01,NNW,340,0.0,1.0,96,-99.99,,,-99.99,,2015-08-30 10:03:00,
2015-08-30 05:13:00,69.0,68.0,30.01,NNW,340,0.0,-999.0,96,-99.99,,,-99.99,,2015-08-30 10:13:00,
2015-08-30 05:24:00,69.0,68.0,30.01,NW,314,0.0,0.0,96,-99.99,,,-99.99,,2015-08-30 10:24:00,
2015-08-30 05:33:00,69.0,68.0,30.01,North,4,0.0,2.0,96,-99.99,,,-99.99,,2015-08-30 10:33:00,
2015-08-30 05:43:00,69.0,68.0,30.01,North,4,0.0,2.0,96,-99.99,,,-99.99,,2015-08-30 10:43:00,
2015-08-30 05:54:00,69.0,68.0,30.01,NW,311,0.0,1.0,96,-99.99,,,-99.99,,2015-08-30 10:54:00,
2015-08-30 06:03:00,69.0,68.0,30.01,NE,48,0.0,1.0,97,-99.99,,,-99.99,,2015-08-30 11:03:00,
2015-08-30 06:13:00,69.0,68.0,30.01,NE,48,0.0,1.0,97,-99.99,,,-99.99,,2015-08-30 11:13:00,
2015-08-30 06:23:00,69.0,68.0,30.01,NW,304,0.0,2.0,97,-99.99,,,-99.99,,2015-08-30 11:23:00,
2015-08-30 06:33:00,69.0,68.0,30.02,NW,307,0.0,1.0,97,-99.99,,,-99.99,,2015-08-30 11:33:00,
2015-08-30 06:44:00,69.0,68.0,30.02,NW,307,0.0,1.0,97,-99.99,,,-99.99,,2015-08-30 11:44:00,
2015-08-30 06:54:00,69.0,68.0,30.01,NW,311,0.0,1.0,97,-99.99,,,-99.99,,2015-08-30 11:54:00,
2015-08-30 07:04:00,69.0,68.0,30.01,NW,321,0.0,2.0,97,-99.99,,,-99.99,,2015-08-30 12:04:00,
2015-08-30 07:13:00,69.0,68.0,30.01,NW,321,0.0,2.0,97,-99.99,,,-99.99,,2015-08-30 12:13:00,
2015-08-30 07:24:00,69.0,68.0,30.02,NW,308,0.0,2.0,97,-99.99,,,-99.99,,2015-08-30 12:24:00,
2015-08-30 07:33:00,69.0,68.0,30.03,NNW,335,0.0,3.0,97,-99.99,,,-99.99,,2015-08-30 12:33:00,
2015-08-30 07:44:00,69.0,68.0,30.03,NNW,335,0.0,3.0,97,-99.99,,,-99.99,,2015-08-30 12:44:00,
2015-08-30 07:54:00,70.0,69.0,30.03,West,262,0.0,1.0,96,-99.99,,,-99.99,,2015-08-30 12:54:00,
2015-08-30 08:03:00,72.0,70.0,30.03,West,262,0.0,1.0,95,-99.99,,,-99.99,,2015-08-30 13:03:00,
2015-08-30 08:13:00,72.0,70.0,30.03,West,262,0.0,1.0,95,-99.99,,,-99.99,,2015-08-30 13:13:00,
2015-08-30 08:23:00,74.0,72.0,30.03,SSE,149,0.0,1.0,92,-99.99,,,-99.99,,2015-08-30 13:23:00,
2015-08-30 08:35:00,75.0,72.0,30.03,ESE,110,0.0,2.0,89,-99.99,,,-99.99,,2015-08-30 13:35:00,
2015-08-30 08:43:00,75.0,72.0,30.03,ESE,110,0.0,2.0,89,-99.99,,,-99.99,,2015-08-30 13:43:00,
2015-08-30 08:54:00,77.0,73.0,30.03,NNW,332,0.0,1.0,88,-99.99,,,-99.99,,2015-08-30 13:54:00,
2015-08-30 09:04:00,78.0,73.0,30.03,NW,323,1.0,2.0,86,-99.99,,,-99.99,,2015-08-30 14:04:00,
2015-08-30 09:13:00,78.0,73.0,30.03,NW,323,1.0,2.0,86,-99.99,,,-99.99,,2015-08-30 14:13:00,
2015-08-30 09:23:00,80.0,75.0,30.04,NW,318,0.0,2.0,84,-99.99,,,-99.99,,2015-08-30 14:23:00,
2015-08-30 09:43:00,83.0,76.0,30.05,SW,232,0.0,1.0,79,-99.99,,,-99.99,,2015-08-30 14:43:00,
2015-08-30 09:54:00,83.0,75.0,30.05,WNW,292,0.0,1.0,77,-99.99,,,-99.99,,2015-08-30 14:54:00,
2015-08-30 10:13:00,84.0,75.0,30.05,WSW,245,1.0,4.0,75,-99.99,,,-99.99,,2015-08-30 15:13:00,
2015-08-30 10:23:00,84.0,75.0,30.05,SW,229,0.0,4.0,75,-99.99,,,-99.99,,2015-08-30 15:23:00,
2015-08-30 10:33:00,84.0,75.0,30.05,SW,226,0.0,3.0,74,-99.99,,,-99.99,,2015-08-30 15:33:00,
2015-08-30 10:44:00,84.0,75.0,30.05,SW,226,0.0,3.0,74,-99.99,,,-99.99,,2015-08-30 15:44:00,
2015-08-30 10:54:00,85.0,75.0,30.05,SW,215,0.0,3.0,72,-99.99,,,-99.99,,2015-08-30 15:54:00,
2015-08-30 11:04:00,86.0,76.0,30.05,East,101,0.0,3.0,72,-99.99,,,-99.99,,2015-08-30 16:04:00,
2015-08-30 11:14:00,85.0,75.0,30.06,NW,310,4.0,6.0,71,-99.99,,,-99.99,,2015-08-30 16:14:00,
2015-08-30 11:24:00,85.0,75.0,30.06,NW,310,4.0,6.0,71,-99.99,,,-99.99,,2015-08-30 16:24:00,
2015-08-30 11:33:00,84.0,74.0,30.05,NNW,335,4.0,7.0,72,-99.99,,,-99.99,,2015-08-30 16:33:00,
2015-08-30 11:47:00,86.0,73.0,30.05,North,350,3.0,5.0,65,-99.99,,,-99.99,,2015-08-30 16:47:00,
2015-08-30 11:54:00,86.0,73.0,30.05,North,350,3.0,5.0,65,-99.99,,,-99.99,,2015-08-30 16:54:00,
2015-08-30 12:04:00,87.0,74.0,30.05,WNW,297,2.0,5.0,66,-99.99,,,-99.99,,2015-08-30 17:04:00,
2015-08-30 12:15:00,87.0,75.0,30.05,NW,316,2.0,6.0,67,-99.99,,,-99.99,,2015-08-30 17:15:00,
2015-08-30 12:23:00,87.0,75.0,30.05,NW,316,2.0,6.0,67,-99.99,,,-99.99,,2015-08-30 17:23:00,
2015-08-30 12:34:00,89.0,74.0,30.04,SE,134,0.0,2.0,62,-99.99,,,-99.99,,2015-08-30 17:34:00,
2015-08-30 12:54:00,87.0,74.0,30.04,ESE,110,3.0,6.0,66,-99.99,,,-99.99,,2015-08-30 17:54:00,
2015-08-30 13:04:00,85.0,75.0,30.03,East,79,2.0,6.0,73,-99.99,,,-99.99,,2015-08-30 18:04:00,
2015-08-30 13:13:00,85.0,75.0,30.03,East,79,2.0,6.0,73,-99.99,,,-99.99,,2015-08-30 18:13:00,
2015-08-30 13:24:00,85.0,75.0,30.03,ESE,117,1.0,5.0,72,-99.99,,,-99.99,,2015-08-30 18:24:00,
2015-08-30 13:34:00,85.0,75.0,30.03,West,260,0.0,5.0,72,-99.99,,,-99.99,,2015-08-30 18:34:00,
2015-08-30 13:44:00,85.0,75.0,30.03,West,260,0.0,5.0,72,-99.99,,,-99.99,,2015-08-30 18:44:00,
2015-08-30 13:54:00,88.0,76.0,30.03,SE,146,2.0,6.0,67,-99.99,,,-99.99,,2015-08-30 18:54:00,
2015-08-30 14:04:00,88.0,75.0,30.02,ESE,121,1.0,7.0,65,-99.99,,,-99.99,,2015-08-30 19:04:00,
2015-08-30 14:13:00,88.0,75.0,30.02,ESE,121,1.0,7.0,65,-99.99,,,-99.99,,2015-08-30 19:13:00,
2015-08-30 14:23:00,86.0,74.0,30.01,SE,132,3.0,10.0,68,-99.99,,,-99.99,,2015-08-30 19:23:00,
2015-08-30 14:34:00,86.0,76.0,30.01,SSE,153,3.0,6.0,72,-99.99,,,-99.99,,2015-08-30 19:34:00,
2015-08-30 14:44:00,86.0,76.0,30.01,SSE,153,3.0,6.0,72,-99.99,,,-99.99,,2015-08-30 19:44:00,
2015-08-30 14:54:00,87.0,76.0,30.01,SW,233,1.0,8.0,71,-99.99,,,-99.99,,2015-08-30 19:54:00,
2015-08-30 15:04:00,87.0,76.0,30.00,SE,131,2.0,7.0,70,-99.99,,,-99.99,,2015-08-30 20:04:00,
2015-08-30 15:13:00,87.0,76.0,30.00,SE,131,2.0,7.0,70,-99.99,,,-99.99,,2015-08-30 20:13:00,
2015-08-30 15:23:00,89.0,75.0,29.99,WSW,245,0.0,4.0,64,-99.99,,,-99.99,,2015-08-30 20:23:00,
2015-08-30 15:33:00,89.0,77.0,29.99,East,85,3.0,11.0,67,-99.99,,,-99.99,,2015-08-30 20:33:00,
2015-08-30 15:43:00,89.0,77.0,29.99,East,85,3.0,11.0,67,-99.99,,,-99.99,,2015-08-30 20:43:00,
2015-08-30 15:54:00,88.0,75.0,29.99,SSW,195,0.0,7.0,65,-99.99,,,-99.99,,2015-08-30 20:54:00,
2015-08-30 16:03:00,89.0,74.0,29.98,SSW,199,2.0,5.0,61,-99.99,,,-99.99,,2015-08-30 21:03:00,
2015-08-30 16:13:00,89.0,74.0,29.98,SSW,199,2.0,5.0,61,-99.99,,,-99.99,,2015-08-30 21:13:00,
2015-08-30 16:23:00,87.0,75.0,29.98,WSW,243,2.0,6.0,68,-99.99,,,-99.99,,2015-08-30 21:23:00,
2015-08-30 16:34:00,85.0,75.0,29.98,SW,214,1.0,6.0,72,-99.99,,,-99.99,,2015-08-30 21:34:00,
2015-08-30 16:54:00,85.0,76.0,29.97,SW,217,1.0,6.0,75,-99.99,,,-99.99,,2015-08-30 21:54:00,
2015-08-30 17:03:00,85.0,76.0,29.97,West,268,2.0,4.0,74,-99.99,,,-99.99,,2015-08-30 22:03:00,
2015-08-30 17:13:00,85.0,76.0,29.97,West,268,2.0,4.0,74,-99.99,,,-99.99,,2015-08-30 22:13:00,
2015-08-30 17:23:00,85.0,76.0,29.97,WSW,240,1.0,4.0,74,-99.99,,,-99.99,,2015-08-30 22:23:00,
2015-08-30 17:34:00,86.0,75.0,29.97,WNW,296,2.0,6.0,69,-99.99,,,-99.99,,2015-08-30 22:34:00,
2015-08-30 17:44:00,86.0,75.0,29.97,WNW,296,2.0,6.0,69,-99.99,,,-99.99,,2015-08-30 22:44:00,
2015-08-30 17:57:00,86.0,73.0,29.97,WNW,296,2.0,4.0,66,-99.99,,,-99.99,,2015-08-30 22:57:00,